Location: Detroit
(42.3310°N, 83.0460°W)
Time: 23:31:33
(UTC-05:00)

Transit 4A - Visible Passes

Search period start: 29 January 2023 00:00
Search period end: 08 February 2023 00:00
Orbit: 871 x 973 km, 66.8° (Epoch: 29 January)

Date Brightness Start Highest point End Pass type
(mag) Time Alt. Az. Time Alt. Az. Time Alt. Az.
29 Jan 10.5 03:55:47 11° SE 03:55:47 11° SE 03:55:58 10° SE visible
29 Jan 9.4 05:39:21 19° SSW 05:39:21 19° SSW 05:41:27 10° SSW visible
29 Jan 7.9 18:51:45 10° S 18:57:25 55° ESE 19:02:24 14° NE visible
29 Jan 9.5 20:39:10 10° WSW 20:44:05 27° NW 20:45:57 23° NNW visible
30 Jan 7.7 19:00:44 10° SSW 19:06:34 82° ESE 19:12:05 12° NNE visible
30 Jan 9.9 20:49:22 10° W 20:53:37 20° NW 20:55:38 17° NNW visible
31 Jan 8.0 19:10:00 10° SW 19:15:47 69° WNW 19:21:37 10° NNE visible
31 Jan 10.1 20:59:55 10° WNW 21:03:15 15° NW 21:05:14 13° NNW visible
01 Feb 8.6 19:19:29 10° SW 19:25:05 48° NW 19:30:44 10° NNE visible
01 Feb 10.4 21:10:59 10° NW 21:12:58 12° NNW 21:14:44 10° NNW visible
02 Feb 9.2 19:29:14 10° WSW 19:34:29 34° NW 19:39:45 10° NNE visible
03 Feb 9.7 19:39:14 10° W 19:43:57 25° NW 19:48:42 10° N visible
04 Feb 10.0 19:49:32 10° W 19:53:31 19° NW 19:57:30 10° N visible
05 Feb 10.2 20:00:13 10° WNW 20:03:10 14° NW 20:06:09 10° N visible
06 Feb 8.9 18:19:25 10° WSW 18:24:54 42° NW 18:30:27 10° NNE visible
06 Feb 10.4 20:11:42 10° NW 20:12:55 11° NNW 20:14:09 10° NNW visible
07 Feb 9.4 18:29:14 10° WSW 18:34:20 30° NW 18:39:27 10° NNE visible
